Location: Chandrammap?lem
(16.9200°N, 81.0051°E)
Time: 19:53:20
(UTC+00:00)

Landsat 7 - Pass Details

Date: 29 May 2024
Orbit: 690 x 692 km, 97.9° (Epoch: 14 June)

Event Time Altitude Azimuth Distance (km) Brightness Sun altitude
Rises 13:47:46 0° 171° (S) 3,052 6.8 -10.1°
Reaches altitude 10° 13:50:00 10° 173° (S) 2,136 6.0 -10.6°
Maximum altitude 13:54:41 77° 259° (W) 711 3.9 -11.6°
Drops below altitude 10° 13:59:22 10° 345° (NNW) 2,139 7.0 -12.5°
Sets 14:01:36 0° 346° (NNW) 3,056 7.8 -13.0°
